Stations météo

réclame
Mon MeteoGroup
Mierkenis, Suède (2121): Température de l'air & dewpoint: 12.08.2018 02:00:00 - 18.08.2018 02:00:00 (CEST)Mierkenis, Suède (2121): Vitesse du vent & gusts: 12.08.2018 02:00:00 - 18.08.2018 02:00:00 (CEST)Mierkenis, Suède (2121): Direction du vent: 12.08.2018 02:00:00 - 18.08.2018 02:00:00 (CEST)Mierkenis, Suède (2121): reduced air pressure: 12.08.2018 02:00:00 - 18.08.2018 02:00:00 (CEST)Mierkenis, Suède (2121): visibility: 12.08.2018 02:00:00 - 18.08.2018 02:00:00 (CEST)Mierkenis, Suède (2121): Quantités de précipitations: 12.08.2018 02:00:00 - 18.08.2018 02:00:00 (CEST)
Date & Time tt [°C] td [°C] ff [km/h] ff [knt] fx [km/h] fx [knt] dd ppp [hPa] vv [km] rr [mm]
18.08.2018 02:00:00 7,3 5,9 2 1 10 6 ENE 1006,1 33 0,0
18.08.2018 01:00:00 8,0 6,3 4 2 10 6 NE 1005,8 17 0,1
18.08.2018 00:00:00 7,0 5,9 3 2 20 11 SSE 1005,8 50 0,1
17.08.2018 23:00:00 7,7 6,0 2 1 20 11 NNE 1005,6 50 0,0
17.08.2018 22:00:00 9,4 5,0 9 5 24 13 N 1005,1 50 0,0
17.08.2018 21:00:00 8,7 7,2 5 3 24 13 W 1005,2 50 0,1
17.08.2018 20:00:00 10,3 8,2 3 1 14 7 SSW 1004,5 50 0,0
17.08.2018 19:00:00 12,3 6,8 5 3 21 11 NW 1003,8 47 0,0
17.08.2018 18:00:00 13,0 6,6 9 5 25 13 N 1003,9 50 0,0
17.08.2018 17:00:00 12,2 6,9 7 4 31 17 NNW 1003,9 50 0,0
17.08.2018 16:00:00 11,8 9,5 11 6 31 17 NW 1004,2 14 0,0
17.08.2018 15:00:00 14,1 7,4 10 6 32 18 NW 1002,7 49 0,0
17.08.2018 14:00:00 15,4 6,7 13 7 32 18 W 1002,0 42 0,0
17.08.2018 13:00:00 14,4 7,2 8 4 29 16 WNW 1002,2 46 0,0
17.08.2018 12:00:00 13,7 7,7 8 4 39 21 W 1002,5 46 0,0
17.08.2018 11:00:00 14,4 8,3 7 4 39 21 W 1001,5 47 0,0
17.08.2018 10:00:00 15,1 9,9 15 8 36 19 W 1000,0 45 0,0
17.08.2018 09:00:00 13,6 11,1 5 3 15 8 S 999,8 50 0,0
17.08.2018 08:00:00 13,4 11,8 5 3 29 16 ESE 999,2 49 0,2
17.08.2018 07:00:00 13,4 12,5 7 4 34 18 E 998,5 8 1,8
17.08.2018 06:00:00 13,3 12,7 20 11 32 17 SE 998,0 16 0,8
17.08.2018 05:00:00 11,9 11,6 16 9 25 13 SE 998,9 8 0,3
17.08.2018 04:00:00 11,1 10,6 10 5 19 10 SE 999,9 6 0,5
17.08.2018 03:00:00 11,0 10,7 9 5 19 10 SE 1001,0 6 0,4
17.08.2018 02:00:00 11,1 10,8 4 2 11 6 SSE 1002,0 2,3 0,1
17.08.2018 01:00:00 11,0 10,5 3 1 29 16 SSE 1002,6 38 0,0
17.08.2018 00:00:00 11,7 10,3 11 6 29 16 NW 1002,3 41 1,4
16.08.2018 23:00:00 12,9 12,4 15 8 27 15 SE 1002,1 15 0,9
16.08.2018 22:00:00 12,8 12,2 16 9 26 14 SE 1002,8 16 1,4
16.08.2018 21:00:00 12,6 12,0 14 8 30 16 SE 1003,4 6 1,5
16.08.2018 20:00:00 12,7 11,4 13 7 30 16 ESE 1004,1 11 0,1
16.08.2018 19:00:00 12,3 11,2 9 5 33 18 SE 1004,9 50 0,0
16.08.2018 18:00:00 12,0 10,9 9 5 33 18 SSE 1005,7 50 0,0
16.08.2018 17:00:00 12,1 10,8 11 6 26 14 ESE 1006,0 49 0,1
16.08.2018 16:00:00 11,7 10,6 16 9 31 17 E 1006,2 26 0,8
16.08.2018 15:00:00 11,5 10,6 15 8 32 17 ESE 1006,8 14 0,9
16.08.2018 14:00:00 11,8 10,4 18 10 32 17 SE 1006,8 5 0,0
16.08.2018 13:00:00 11,5 9,6 14 8 31 17 ESE 1006,9 50 0,0
16.08.2018 12:00:00 11,3 9,6 17 9 30 16 ESE 1007,0 41 0,0
16.08.2018 11:00:00 11,3 9,6 14 7 26 14 SE 1007,0 50 0,0
16.08.2018 10:00:00 11,3 9,9 17 9 26 14 ESE 1006,7 50 0,0
16.08.2018 09:00:00 11,2 9,9 15 8 24 13 SE 1007,1 50 0,0
16.08.2018 08:00:00 10,7 9,8 15 8 24 13 SE 1007,3 47 0,0
16.08.2018 07:00:00 10,4 9,3 14 7 23 12 SE 1007,7 50 0,0
16.08.2018 06:00:00 10,2 9,4 10 5 21 11 SE 1008,0 44 0,0
16.08.2018 05:00:00 10,1 9,3 9 5 21 11 SE 1008,1 42 0,0
16.08.2018 04:00:00 10,1 9,3 11 6 25 14 SE 1008,4 41 0,0
16.08.2018 03:00:00 10,1 9,2 13 7 25 14 ESE 1008,4 48 0,0
16.08.2018 02:00:00 10,0 8,8 11 6 19 11 ESE 1008,7 48 0,0
16.08.2018 01:00:00 9,7 8,6 10 5 21 11 SE 1009,1 48 0,0
16.08.2018 00:00:00 9,8 8,7 13 7 23 13 SE 1009,3 28 0,1
15.08.2018 23:00:00 10,0 8,1 10 6 23 13 ESE 1009,2 33 0,1
15.08.2018 22:00:00 9,5 8,4 8 4 26 14 SSE 1009,5 25 0,0
15.08.2018 21:00:00 10,6 8,0 11 6 30 16 ESE 1009,2 34 0,0
15.08.2018 20:00:00 11,7 6,6 18 10 30 16 SE 1008,6 50 0,0
15.08.2018 19:00:00 12,4 7,1 16 8 29 15 SE 1008,4 50 0,0
15.08.2018 18:00:00 12,8 6,2 15 8 29 16 SE 1008,3 50 0,0
15.08.2018 17:00:00 13,3 5,5 15 8 29 16 SE 1008,0 50 0,0
15.08.2018 16:00:00 14,1 4,7 15 8 31 17 SE 1007,8 50 0,0
15.08.2018 15:00:00 14,9 4,0 14 8 32 17 SE 1007,3 42 0,0
15.08.2018 14:00:00 13,2 5,6 20 11 32 17 SE 1007,9 38 0,0
15.08.2018 13:00:00 13,0 5,7 18 10 30 16 SE 1007,9 44 0,0
15.08.2018 12:00:00 11,8 5,4 16 9 29 16 SE 1008,4 41 0,0
15.08.2018 11:00:00 10,7 5,0 11 6 27 15 SE 1008,9 50 0,0
15.08.2018 10:00:00 11,3 5,0 15 8 26 14 SE 1008,6 46 0,0
15.08.2018 09:00:00 10,4 5,4 14 8 24 13 SE 1008,9 47 0,0
15.08.2018 08:00:00 7,9 5,4 11 6 19 10 ESE 1009,7 50 0,0
15.08.2018 07:00:00 6,9 5,1 6 3 12 7 ESE 1010,2 50 0,0
15.08.2018 06:00:00 4,2 4,1 3 1 7 4 S 1011,0 45 0,0
15.08.2018 05:00:00 3,0 2,7 4 2 7 4 NW 1011,4 41 0,0
15.08.2018 04:00:00 2,8 2,4 0 0 5 3 N 1011,7 39 0,0
15.08.2018 03:00:00 3,3 2,9 0 0 6 4 N 1011,5 45 0,0
15.08.2018 02:00:00 3,8 3,4 2 1 6 4 WNW 1011,5 47 0,0
15.08.2018 01:00:00 3,8 3,2 3 2 8 4 NNW 1011,4 50 0,0
15.08.2018 00:00:00 4,8 4,2 4 2 8 4 NNW 1011,0 50 0,0
14.08.2018 23:00:00 4,7 3,8 5 3 9 5 NW 1011,2 50 0,0
14.08.2018 22:00:00 4,1 3,4 4 2 9 5 N 1011,2 50 0,0
14.08.2018 21:00:00 5,9 4,2 5 3 8 5 NNW 1010,7 50 0,0
14.08.2018 20:00:00 8,8 5,0 4 2 12 6 WNW 1009,7 50 0,0
14.08.2018 19:00:00 10,8 4,0 5 3 12 7 W 1008,9 50 0,0
14.08.2018 18:00:00 12,8 2,9 4 2 14 8 NW 1008,5 44 0,0
14.08.2018 17:00:00 11,3 3,3 7 4 14 8 NW 1008,9 50 0,0
14.08.2018 16:00:00 12,9 2,4 5 3 18 10 W 1008,6 48 0,0
14.08.2018 15:00:00 12,1 2,8 6 4 18 10 NNW 1008,9 45 0,0
14.08.2018 14:00:00 11,7 3,0 6 3 19 10 NW 1009,1 47 0,0
14.08.2018 13:00:00 10,9 1,7 3 2 19 10 NNE 1009,2 49 0,0
14.08.2018 12:00:00 11,9 2,9 4 2 17 9 N 1008,9 37 0,0
14.08.2018 11:00:00 10,2 1,6 4 2 21 11 WNW 1009,3 44 0,0
14.08.2018 10:00:00 8,5 2,5 8 5 21 11 NW 1009,8 50 0,0
14.08.2018 09:00:00 9,2 3,4 10 5 21 11 N 1009,5 50 0,0
14.08.2018 08:00:00 7,4 3,8 10 5 21 11 N 1010,0 50 0,0
14.08.2018 07:00:00 7,4 3,4 10 5 18 10 N 1009,9 50 0,0
14.08.2018 06:00:00 6,1 3,9 6 3 13 7 NW 1010,2 50 0,0
14.08.2018 05:00:00 5,6 3,4 9 5 22 12 NNW 1010,2 50 0,0
14.08.2018 04:00:00 5,1 3,3 3 2 22 12 WNW 1010,2 50 0,0
14.08.2018 03:00:00 4,9 2,9 4 2 23 13 WNW 1010,0 50 0,0
14.08.2018 02:00:00 5,3 3,6 5 3 24 13 NNW 1009,7 50 0,0
14.08.2018 01:00:00 5,5 3,3 8 5 27 15 NNW 1009,3 50 0,0
14.08.2018 00:00:00 5,5 3,3 6 4 27 15 NNW 1009,0 50 0,0
13.08.2018 23:00:00 5,7 3,5 12 7 27 14 NNW 1009,1 50 0,0
13.08.2018 22:00:00 5,8 3,5 11 6 27 14 NNW 1008,7 50 -
13.08.2018 21:00:00 6,2 3,4 10 6 35 19 NNW 1008,6 50 0,0
13.08.2018 20:00:00 6,7 3,1 8 5 37 20 NNW 1007,9 50 0,0
13.08.2018 19:00:00 7,2 3,4 16 9 37 20 NW 1007,5 50 0,0
13.08.2018 18:00:00 7,7 3,9 19 10 37 20 NW 1007,3 50 0,0
13.08.2018 17:00:00 7,8 3,8 18 10 42 23 NW 1007,2 48 0,0
13.08.2018 16:00:00 8,1 4,7 22 12 42 23 NW 1006,9 41 0,0
13.08.2018 15:00:00 8,5 4,3 24 13 42 23 NW 1006,4 47 0,0
13.08.2018 14:00:00 8,5 4,5 19 11 41 22 NW 1006,4 45 0,0
13.08.2018 13:00:00 7,5 3,9 17 9 36 19 WNW 1006,6 47 0,0
13.08.2018 12:00:00 7,7 3,9 19 10 37 20 NW 1006,1 50 0,0
13.08.2018 11:00:00 7,1 3,3 14 7 37 20 NW 1006,4 45 0,0
13.08.2018 10:00:00 6,7 3,8 14 8 36 19 WNW 1006,2 50 0,0
13.08.2018 09:00:00 6,3 3,6 18 10 36 19 WNW 1005,6 47 0,0
13.08.2018 08:00:00 7,5 4,3 16 8 36 19 WNW 1004,9 50 0,0
13.08.2018 07:00:00 6,8 3,2 16 9 41 22 WNW 1004,7 50 0,0
13.08.2018 06:00:00 6,6 3,6 16 9 41 22 W 1004,2 50 0,0
13.08.2018 05:00:00 6,2 4,0 22 12 41 22 NW 1003,8 50 0,0
13.08.2018 04:00:00 6,7 4,4 16 9 34 19 NW 1003,6 50 0,0
13.08.2018 03:00:00 6,9 5,1 15 8 33 18 NW 1003,5 50 0,0
13.08.2018 02:00:00 7,0 5,5 12 6 33 18 NW 1003,1 50 0,0
13.08.2018 01:00:00 7,4 5,5 14 8 37 20 NW 1003,1 50 0,0
13.08.2018 00:00:00 7,6 5,9 16 9 37 20 NW 1002,7 50 0,0
12.08.2018 23:00:00 7,7 5,7 18 10 37 20 WNW 1002,4 50 0,0
12.08.2018 22:00:00 7,9 5,9 16 8 35 19 NW 1002,6 50 0,0
12.08.2018 21:00:00 8,0 6,1 14 8 35 19 NW 1002,4 50 0,0
12.08.2018 20:00:00 8,1 6,2 16 9 37 20 NW 1002,2 41 0,0
12.08.2018 19:00:00 8,5 6,1 15 8 37 20 NW 1002,2 50 0,0
12.08.2018 18:00:00 9,0 6,4 16 9 37 20 NW 1002,2 25 0,0
12.08.2018 17:00:00 9,3 6,0 18 10 36 19 NW 1002,3 24 0,0
12.08.2018 16:00:00 10,0 6,5 16 9 33 18 NW 1002,2 44 0,0
12.08.2018 15:00:00 10,7 7,0 16 9 35 19 WNW 1001,8 49 0,0
12.08.2018 14:00:00 11,5 9,1 15 8 35 19 NW 1001,4 8 0,0
12.08.2018 13:00:00 9,4 7,5 16 8 31 17 NNW 1002,2 4,3 0,0
12.08.2018 12:00:00 10,1 6,1 11 6 29 16 WNW 1002,1 38 0,0
12.08.2018 11:00:00 9,0 5,6 15 8 29 16 NNW 1002,3 40 0,0
12.08.2018 10:00:00 8,2 5,8 14 8 32 17 NNW 1002,5 43 0,0
12.08.2018 09:00:00 7,7 4,8 19 10 32 17 N 1002,6 47 0,0
12.08.2018 08:00:00 8,1 4,1 17 9 33 18 NNW 1002,5 50 0,0
12.08.2018 07:00:00 7,8 4,0 14 7 33 18 NNW 1002,4 50 0,0
12.08.2018 06:00:00 7,5 3,9 14 8 33 18 NNW 1002,6 50 0,0
12.08.2018 05:00:00 7,2 3,6 16 8 29 15 NNW 1003,0 50 0,0
12.08.2018 04:00:00 7,3 3,5 13 7 34 18 NW 1003,6 50 0,0
12.08.2018 03:00:00 7,4 3,4 10 5 36 19 NW 1003,9 50 0,0
12.08.2018 02:00:00 7,4 3,3 13 7 36 19 NW 1004,0 50 0,0

tt = Température de l'air
td = dewpoint
ff = Vitesse du vent
fx = gusts
dd = Direction du vent
ppp = reduced air pressure
vv = visibility
rr = Quantités de précipitations

stations d'obs. à proximité